Volver al catálogo

DMSP 5D-2 F13 DEB

ActivoSSO
NORAD 40612·DEBRIS·🇺🇸 United States

Lanzado Mar 24, 1995 desde Vandenberg Space Force Base

Loading…

Próximos Pases (próximas 24 horas)

TLE

ActualizadoSource: Space-Track

Época: Sep 14, 2026, 07:53 UTC

1 40612U 95015FK  26257.32854763  .00002644  00000-0  85672-3 0  9990
2 40612  98.6752 296.7018 0007196 118.6815 241.5097 14.39816083592173

Sigue DMSP 5D-2 F13 DEB en tiempo real con AllMySat

Download on the App Store